Terminal Aerodrome Forecast
Issued by NWS

Home | Current Version | Previous Version | Text Only | Print | Product List | Glossary Off
Versions: 1 2 3 4 5 6 7 8 9 10 11 12 13 14 15 16

000
FTUS43 KFGF 310500
TAFBJI
TAF
KBJI 310520Z 3106/0106 13006KT P6SM BKN015
     FM311400 16013KT P6SM -SHRA BKN040
     FM312000 18006KT P6SM -TSRA BKN025CB
     FM010200 24007KT P6SM BKN030=

USA.gov is the U.S. government's official web portal to all federal, state and local government web resources and services.